Location: Newark
(52.8300°N, 8.0000°E)
Time: 00:25:33
(UTC+00:00)

STARLINK-1075 - Pass Details

Date: 29 January 2020
Orbit: 348 x 351 km, 53.0° (Epoch: 28 February)

Event Time Altitude Azimuth Distance (km) Brightness Sun altitude
Rises 17:33:34 0° 283° (WNW) 2,180 7.9 -13.1°
Reaches altitude 10° 17:35:37 10° 278° (W) 1,332 6.8 -13.4°
Maximum altitude 17:38:30 48° 202° (SSW) 473 3.5 -13.8°
Enters shadow 17:40:24 18° 133° (SE) 951 4.5 -14.1°
